Time,TemperatureF,DewpointF,PressureIn,WindDirection,WindDirectionDegrees,WindSpeedMPH,WindSpeedGustMPH,Humidity,HourlyPrecipIn,Conditions,Clouds,dailyrainin,SoftwareType,DateUTC
2013-09-05 00:02:00,69.3,66.9,29.88,West,270,3.0,6.0,92,0.00,,,0.00,meteohub,2013-09-05 07:02:00,
2013-09-05 00:07:00,69.1,66.7,29.87,West,270,4.0,7.0,92,0.00,,,0.00,meteohub,2013-09-05 07:07:00,
2013-09-05 00:12:00,69.1,66.9,29.87,West,270,2.0,7.0,93,0.00,,,0.00,meteohub,2013-09-05 07:12:00,
2013-09-05 00:17:00,68.9,66.7,29.88,West,270,2.0,7.0,93,0.00,,,0.00,meteohub,2013-09-05 07:17:00,
2013-09-05 00:22:00,68.9,66.7,29.87,West,270,3.0,5.0,93,0.00,,,0.00,meteohub,2013-09-05 07:22:00,
2013-09-05 00:27:00,68.9,66.7,29.87,West,270,2.0,5.0,93,0.00,,,0.00,meteohub,2013-09-05 07:27:00,
2013-09-05 00:32:00,68.9,66.7,29.87,West,270,4.0,5.0,93,0.00,,,0.00,meteohub,2013-09-05 07:32:00,
2013-09-05 00:37:00,69.1,66.9,29.87,West,270,2.0,4.0,93,0.00,,,0.00,meteohub,2013-09-05 07:37:00,
2013-09-05 00:42:00,69.1,66.9,29.88,West,270,4.0,4.0,93,0.00,,,0.00,meteohub,2013-09-05 07:42:00,
2013-09-05 00:47:00,69.3,66.9,29.87,West,270,4.0,4.0,92,0.00,,,0.00,meteohub,2013-09-05 07:47:00,
2013-09-05 00:52:00,69.3,66.9,29.87,West,270,4.0,5.0,92,0.00,,,0.00,meteohub,2013-09-05 07:52:00,
2013-09-05 00:57:00,69.4,66.7,29.87,West,270,2.0,5.0,91,0.00,,,0.00,meteohub,2013-09-05 07:57:00,
2013-09-05 01:02:00,69.4,66.7,29.88,West,270,4.0,5.0,91,0.00,,,0.00,meteohub,2013-09-05 08:02:00,
2013-09-05 01:07:00,69.3,66.6,29.87,West,270,2.0,5.0,91,0.00,,,0.00,meteohub,2013-09-05 08:07:00,
2013-09-05 01:12:00,69.3,66.6,29.86,West,270,3.0,4.0,91,0.00,,,0.00,meteohub,2013-09-05 08:12:00,
2013-09-05 01:17:00,69.3,66.6,29.87,West,270,2.0,4.0,91,0.00,,,0.00,meteohub,2013-09-05 08:17:00,
2013-09-05 01:22:00,69.3,66.9,29.86,West,270,2.0,4.0,92,0.00,,,0.00,meteohub,2013-09-05 08:22:00,
2013-09-05 01:27:00,69.3,66.9,29.86,West,270,4.0,4.0,92,0.00,,,0.00,meteohub,2013-09-05 08:27:00,
2013-09-05 01:32:00,69.3,66.9,29.86,West,270,4.0,5.0,92,0.00,,,0.00,meteohub,2013-09-05 08:32:00,
2013-09-05 01:37:00,69.1,66.7,29.86,West,270,4.0,5.0,92,0.00,,,0.00,meteohub,2013-09-05 08:37:00,
2013-09-05 01:42:00,69.1,66.7,29.86,West,270,4.0,5.0,92,0.00,,,0.00,meteohub,2013-09-05 08:42:00,
2013-09-05 01:47:00,69.1,66.7,29.86,SW,225,2.0,5.0,92,0.00,,,0.00,meteohub,2013-09-05 08:47:00,
2013-09-05 01:52:00,68.9,66.6,29.86,SW,225,1.0,5.0,92,0.00,,,0.00,meteohub,2013-09-05 08:52:00,
2013-09-05 01:57:00,68.9,66.6,29.86,West,270,2.0,4.0,92,0.00,,,0.00,meteohub,2013-09-05 08:57:00,
2013-09-05 02:02:00,68.7,66.4,29.86,West,270,2.0,3.0,92,0.00,,,0.00,meteohub,2013-09-05 09:02:00,
2013-09-05 02:07:00,68.7,66.4,29.86,West,270,1.0,3.0,92,0.00,,,0.00,meteohub,2013-09-05 09:07:00,
2013-09-05 02:12:00,68.7,66.6,29.86,West,270,2.0,3.0,93,0.00,,,0.00,meteohub,2013-09-05 09:12:00,
2013-09-05 02:17:00,68.9,66.7,29.86,WSW,248,2.0,2.0,93,0.00,,,0.00,meteohub,2013-09-05 09:17:00,
2013-09-05 02:22:00,69.1,66.9,29.86,West,270,3.0,3.0,93,0.00,,,0.00,meteohub,2013-09-05 09:22:00,
2013-09-05 02:27:00,68.9,66.6,29.86,West,270,2.0,5.0,92,0.00,,,0.00,meteohub,2013-09-05 09:27:00,
2013-09-05 02:32:00,68.9,66.6,29.86,NW,315,3.0,5.0,92,0.00,,,0.00,meteohub,2013-09-05 09:32:00,
2013-09-05 02:37:00,68.7,66.4,29.86,West,270,3.0,5.0,92,0.00,,,0.00,meteohub,2013-09-05 09:37:00,
2013-09-05 02:42:00,68.7,66.4,29.86,West,270,4.0,4.0,92,0.00,,,0.00,meteohub,2013-09-05 09:42:00,
2013-09-05 02:47:00,68.7,66.4,29.85,West,270,4.0,4.0,92,0.00,,,0.00,meteohub,2013-09-05 09:47:00,
2013-09-05 02:52:00,68.5,66.2,29.85,West,270,2.0,4.0,92,0.00,,,0.00,meteohub,2013-09-05 09:52:00,
2013-09-05 02:57:00,68.4,66.0,29.85,West,270,2.0,4.0,92,0.00,,,0.00,meteohub,2013-09-05 09:57:00,
2013-09-05 03:02:00,68.2,65.8,29.85,South,180,2.0,4.0,92,0.00,,,0.00,meteohub,2013-09-05 10:02:00,
2013-09-05 03:07:00,68.2,66.0,29.84,West,270,2.0,4.0,93,0.00,,,0.00,meteohub,2013-09-05 10:07:00,
2013-09-05 03:12:00,68.0,65.8,29.85,West,270,1.0,4.0,93,0.00,,,0.00,meteohub,2013-09-05 10:12:00,
2013-09-05 03:17:00,68.0,65.8,29.85,West,270,1.0,3.0,93,0.00,,,0.00,meteohub,2013-09-05 10:17:00,
2013-09-05 03:22:00,67.8,66.0,29.85,West,270,1.0,3.0,94,0.00,,,0.00,meteohub,2013-09-05 10:22:00,
2013-09-05 03:27:00,67.6,65.8,29.85,West,270,2.0,2.0,94,0.00,,,0.00,meteohub,2013-09-05 10:27:00,
2013-09-05 03:32:00,67.8,66.4,29.85,South,180,2.0,2.0,95,0.00,,,0.00,meteohub,2013-09-05 10:32:00,
2013-09-05 03:37:00,68.2,66.7,29.85,South,180,3.0,4.0,95,0.00,,,0.00,meteohub,2013-09-05 10:37:00,
2013-09-05 03:42:00,68.4,66.9,29.85,South,180,3.0,4.0,95,0.00,,,0.00,meteohub,2013-09-05 10:42:00,
2013-09-05 03:48:00,68.4,66.6,29.84,South,180,2.0,4.0,94,0.00,,,0.00,meteohub,2013-09-05 10:48:00,
2013-09-05 03:53:00,68.4,66.6,29.84,South,180,3.0,4.0,94,0.00,,,0.00,meteohub,2013-09-05 10:53:00,
2013-09-05 03:58:00,68.4,66.6,29.85,South,180,1.0,3.0,94,0.00,,,0.00,meteohub,2013-09-05 10:58:00,
2013-09-05 04:03:00,68.2,66.4,29.85,South,180,2.0,3.0,94,0.00,,,0.00,meteohub,2013-09-05 11:03:00,
2013-09-05 04:08:00,68.0,66.2,29.85,South,180,1.0,3.0,94,0.00,,,0.00,meteohub,2013-09-05 11:08:00,
2013-09-05 04:13:00,67.8,66.0,29.85,South,180,1.0,3.0,94,0.00,,,0.00,meteohub,2013-09-05 11:13:00,
2013-09-05 04:18:00,67.8,66.0,29.84,South,180,0.0,3.0,94,0.00,,,0.00,meteohub,2013-09-05 11:18:00,
2013-09-05 04:23:00,67.6,65.8,29.84,South,180,1.0,2.0,94,0.00,,,0.00,meteohub,2013-09-05 11:23:00,
2013-09-05 04:28:00,67.6,66.2,29.84,South,180,1.0,1.0,95,0.00,,,0.00,meteohub,2013-09-05 11:28:00,
2013-09-05 04:32:00,68.0,66.7,29.84,SW,225,0.0,2.0,96,0.00,,,0.00,meteohub,2013-09-05 11:32:00,
2013-09-05 04:37:00,67.8,66.4,29.84,SW,225,2.0,2.0,95,0.00,,,0.00,meteohub,2013-09-05 11:37:00,
2013-09-05 04:43:00,67.8,66.4,29.85,SW,225,0.0,2.0,95,0.00,,,0.00,meteohub,2013-09-05 11:43:00,
2013-09-05 04:48:00,67.8,66.4,29.85,SW,225,0.0,2.0,95,0.00,,,0.00,meteohub,2013-09-05 11:48:00,
2013-09-05 04:53:00,67.8,66.4,29.85,SW,225,0.0,2.0,95,0.00,,,0.00,meteohub,2013-09-05 11:53:00,
2013-09-05 04:58:00,67.6,66.2,29.85,SW,225,3.0,3.0,95,0.00,,,0.00,meteohub,2013-09-05 11:58:00,
2013-09-05 05:03:00,67.6,66.2,29.85,SW,225,2.0,3.0,95,0.00,,,0.00,meteohub,2013-09-05 12:03:00,
2013-09-05 05:08:00,67.6,66.2,29.85,SW,225,2.0,3.0,95,0.00,,,0.00,meteohub,2013-09-05 12:08:00,
2013-09-05 05:13:00,67.6,66.2,29.85,SW,225,2.0,3.0,95,0.00,,,0.00,meteohub,2013-09-05 12:13:00,
2013-09-05 05:18:00,67.5,66.0,29.85,SW,225,0.0,3.0,95,0.00,,,0.00,meteohub,2013-09-05 12:18:00,
2013-09-05 05:23:00,67.3,66.0,29.85,SW,225,0.0,2.0,96,0.00,,,0.00,meteohub,2013-09-05 12:23:00,
2013-09-05 05:28:00,67.1,65.8,29.86,SW,225,0.0,2.0,96,0.00,,,0.00,meteohub,2013-09-05 12:28:00,
2013-09-05 05:33:00,66.9,65.7,29.85,SW,225,0.0,1.0,96,0.00,,,0.00,meteohub,2013-09-05 12:33:00,
2013-09-05 05:38:00,66.7,65.5,29.85,SW,225,0.0,0.0,96,0.00,,,0.00,meteohub,2013-09-05 12:38:00,
2013-09-05 05:43:00,66.6,65.3,29.85,SW,225,0.0,0.0,96,0.00,,,0.00,meteohub,2013-09-05 12:43:00,
2013-09-05 05:48:00,66.4,65.5,29.85,SW,225,0.0,0.0,97,0.00,,,0.00,meteohub,2013-09-05 12:48:00,
2013-09-05 05:53:00,66.2,65.3,29.85,SW,225,0.0,0.0,97,0.00,,,0.00,meteohub,2013-09-05 12:53:00,
2013-09-05 05:58:00,66.4,65.5,29.85,SW,225,0.0,1.0,97,0.00,,,0.00,meteohub,2013-09-05 12:58:00,
2013-09-05 06:03:00,66.4,65.5,29.86,SW,225,0.0,1.0,97,0.00,,,0.00,meteohub,2013-09-05 13:03:00,
2013-09-05 06:08:00,66.4,65.8,29.86,SW,225,1.0,1.0,98,0.00,,,0.00,meteohub,2013-09-05 13:08:00,
2013-09-05 06:13:00,66.4,65.8,29.86,SW,225,0.0,1.0,98,0.00,,,0.00,meteohub,2013-09-05 13:13:00,
2013-09-05 06:18:00,66.0,65.5,29.86,SW,225,0.0,1.0,98,0.00,,,0.00,meteohub,2013-09-05 13:18:00,
2013-09-05 06:23:00,66.2,65.8,29.86,SW,225,0.0,1.0,99,0.00,,,0.00,meteohub,2013-09-05 13:23:00,
2013-09-05 06:28:00,66.0,65.7,29.86,SW,225,0.0,0.0,99,0.00,,,0.00,meteohub,2013-09-05 13:28:00,
2013-09-05 06:33:00,66.0,65.7,29.86,SW,225,0.0,0.0,99,0.00,,,0.00,meteohub,2013-09-05 13:33:00,
2013-09-05 06:38:00,66.4,66.0,29.86,SW,225,2.0,0.0,99,0.00,,,0.00,meteohub,2013-09-05 13:38:00,
2013-09-05 06:43:00,66.9,66.6,29.86,SW,225,0.0,1.0,99,0.00,,,0.00,meteohub,2013-09-05 13:43:00,
2013-09-05 06:48:00,67.3,66.9,29.87,SW,225,0.0,2.0,99,0.00,,,0.00,meteohub,2013-09-05 13:48:00,
2013-09-05 06:53:00,67.8,67.5,29.87,SW,225,0.0,2.0,99,0.00,,,0.00,meteohub,2013-09-05 13:53:00,
2013-09-05 06:58:00,68.9,68.5,29.87,SW,225,0.0,2.0,99,0.00,,,0.00,meteohub,2013-09-05 13:58:00,
2013-09-05 07:03:00,70.2,69.6,29.87,SW,225,0.0,0.0,98,0.00,,,0.00,meteohub,2013-09-05 14:03:00,
2013-09-05 07:08:00,71.2,69.1,29.88,SW,225,2.0,0.0,93,0.00,,,0.00,meteohub,2013-09-05 14:08:00,
2013-09-05 07:13:00,72.3,68.5,29.87,SW,225,2.0,2.0,88,0.00,,,0.00,meteohub,2013-09-05 14:13:00,
2013-09-05 07:18:00,72.7,67.3,29.87,SW,225,2.0,2.0,83,0.00,,,0.00,meteohub,2013-09-05 14:18:00,
2013-09-05 07:23:00,72.5,66.4,29.88,WSW,248,3.0,3.0,81,0.00,,,0.00,meteohub,2013-09-05 14:23:00,
2013-09-05 07:28:00,72.5,66.7,29.87,WSW,248,4.0,4.0,82,0.00,,,0.00,meteohub,2013-09-05 14:28:00,
2013-09-05 07:33:00,72.5,66.7,29.88,WSW,248,4.0,4.0,82,0.00,,,0.00,meteohub,2013-09-05 14:33:00,
2013-09-05 07:38:00,72.9,67.1,29.88,West,270,4.0,4.0,82,0.00,,,0.00,meteohub,2013-09-05 14:38:00,
2013-09-05 07:43:00,73.4,66.9,29.88,West,270,4.0,4.0,80,0.00,,,0.00,meteohub,2013-09-05 14:43:00,
2013-09-05 07:48:00,73.9,67.5,29.88,WSW,248,2.0,4.0,80,0.00,,,0.00,meteohub,2013-09-05 14:48:00,
2013-09-05 07:53:00,75.0,67.6,29.88,WSW,248,2.0,4.0,78,0.00,,,0.00,meteohub,2013-09-05 14:53:00,
2013-09-05 07:58:00,75.9,67.8,29.88,SW,225,2.0,4.0,76,0.00,,,0.00,meteohub,2013-09-05 14:58:00,
2013-09-05 08:03:00,76.8,67.8,29.88,WSW,248,2.0,3.0,74,0.00,,,0.00,meteohub,2013-09-05 15:03:00,
2013-09-05 08:08:00,77.9,68.2,29.88,SW,225,1.0,3.0,72,0.00,,,0.00,meteohub,2013-09-05 15:08:00,
2013-09-05 08:13:00,78.4,67.8,29.88,WSW,248,2.0,3.0,70,0.00,,,0.00,meteohub,2013-09-05 15:13:00,
2013-09-05 08:18:00,78.6,67.6,29.88,WSW,248,3.0,3.0,69,0.00,,,0.00,meteohub,2013-09-05 15:18:00,
2013-09-05 08:23:00,79.5,68.0,29.87,WSW,248,0.0,3.0,68,0.00,,,0.00,meteohub,2013-09-05 15:23:00,
2013-09-05 08:28:00,80.4,68.9,29.88,WSW,248,0.0,3.0,68,0.00,,,0.00,meteohub,2013-09-05 15:28:00,
2013-09-05 08:33:00,83.3,67.5,29.88,WSW,248,3.0,3.0,59,0.00,,,0.00,meteohub,2013-09-05 15:33:00,
2013-09-05 08:38:00,82.8,68.0,29.88,WSW,248,2.0,3.0,61,0.00,,,0.00,meteohub,2013-09-05 15:38:00,
2013-09-05 08:43:00,83.3,68.0,29.88,WSW,248,2.0,3.0,60,0.00,,,0.00,meteohub,2013-09-05 15:43:00,
2013-09-05 08:48:00,83.8,68.5,29.88,SW,225,2.0,3.0,60,0.00,,,0.00,meteohub,2013-09-05 15:48:00,
2013-09-05 08:53:00,86.0,70.0,29.88,SW,225,2.0,3.0,59,0.00,,,0.00,meteohub,2013-09-05 15:53:00,
2013-09-05 08:58:00,88.7,68.7,29.88,SSW,203,2.0,3.0,52,0.00,,,0.00,meteohub,2013-09-05 15:58:00,
2013-09-05 09:03:00,89.1,67.5,29.88,WSW,248,2.0,2.0,49,0.00,,,0.00,meteohub,2013-09-05 16:03:00,
2013-09-05 09:08:00,87.6,67.8,29.88,SW,225,1.0,2.0,52,0.00,,,0.00,meteohub,2013-09-05 16:08:00,
2013-09-05 09:13:00,88.9,68.4,29.88,WSW,248,2.0,3.0,51,0.00,,,0.00,meteohub,2013-09-05 16:13:00,
2013-09-05 09:18:00,90.3,68.0,29.88,WSW,248,2.0,3.0,48,0.00,,,0.00,meteohub,2013-09-05 16:18:00,
2013-09-05 09:23:00,90.3,67.3,29.88,SW,225,1.0,3.0,47,0.00,,,0.00,meteohub,2013-09-05 16:23:00,
2013-09-05 09:28:00,91.2,68.2,29.88,SW,225,2.0,2.0,47,0.00,,,0.00,meteohub,2013-09-05 16:28:00,
2013-09-05 09:33:00,90.7,66.4,29.88,WSW,248,2.0,2.0,45,0.00,,,0.00,meteohub,2013-09-05 16:33:00,
2013-09-05 09:38:00,90.3,66.7,29.89,SW,225,2.0,4.0,46,0.00,,,0.00,meteohub,2013-09-05 16:38:00,
2013-09-05 09:43:00,90.5,66.2,29.89,WSW,248,3.0,4.0,45,0.00,,,0.00,meteohub,2013-09-05 16:43:00,
2013-09-05 09:48:00,90.5,67.5,29.89,SW,225,2.0,4.0,47,0.00,,,0.00,meteohub,2013-09-05 16:48:00,
2013-09-05 09:53:00,90.3,66.7,29.89,West,270,4.0,4.0,46,0.00,,,0.00,meteohub,2013-09-05 16:53:00,
2013-09-05 09:58:00,88.9,67.8,29.89,West,270,6.0,6.0,50,0.00,,,0.00,meteohub,2013-09-05 16:58:00,
2013-09-05 10:03:00,87.6,67.8,29.89,NW,315,3.0,6.0,52,0.00,,,0.00,meteohub,2013-09-05 17:03:00,
2013-09-05 10:08:00,87.6,68.4,29.89,West,270,3.0,6.0,53,0.00,,,0.00,meteohub,2013-09-05 17:08:00,
2013-09-05 10:13:00,87.1,68.4,29.89,NW,315,2.0,6.0,54,0.00,,,0.00,meteohub,2013-09-05 17:13:00,
2013-09-05 10:18:00,87.1,68.4,29.89,NW,315,4.0,6.0,54,0.00,,,0.00,meteohub,2013-09-05 17:18:00,
2013-09-05 10:23:00,88.0,67.6,29.89,West,270,3.0,9.0,51,0.00,,,0.00,meteohub,2013-09-05 17:23:00,
2013-09-05 10:28:00,88.2,68.4,29.89,West,270,6.0,9.0,52,0.00,,,0.00,meteohub,2013-09-05 17:28:00,
2013-09-05 10:33:00,87.8,68.5,29.89,NW,315,5.0,9.0,53,0.00,,,0.00,meteohub,2013-09-05 17:33:00,
2013-09-05 10:38:00,88.2,68.4,29.89,West,270,8.0,8.0,52,0.00,,,0.00,meteohub,2013-09-05 17:38:00,
2013-09-05 10:43:00,86.9,68.7,29.89,WNW,293,7.0,8.0,55,0.00,,,0.00,meteohub,2013-09-05 17:43:00,
2013-09-05 10:48:00,86.4,67.8,29.89,West,270,10.0,10.0,54,0.00,,,0.00,meteohub,2013-09-05 17:48:00,
2013-09-05 10:53:00,84.0,68.2,29.89,WNW,293,10.0,10.0,59,0.00,,,0.00,meteohub,2013-09-05 17:53:00,
2013-09-05 10:58:00,83.1,68.4,29.89,WNW,293,8.0,11.0,61,0.00,,,0.00,meteohub,2013-09-05 17:58:00,
2013-09-05 11:03:00,83.1,67.8,29.89,WNW,293,11.0,11.0,60,0.00,,,0.00,meteohub,2013-09-05 18:03:00,
2013-09-05 11:08:00,82.9,68.2,29.89,WNW,293,10.0,10.0,61,0.00,,,0.00,meteohub,2013-09-05 18:08:00,
2013-09-05 11:13:00,82.4,68.0,29.89,West,270,8.0,11.0,62,0.00,,,0.00,meteohub,2013-09-05 18:13:00,
2013-09-05 11:18:00,82.4,68.0,29.89,NW,315,8.0,11.0,62,0.00,,,0.00,meteohub,2013-09-05 18:18:00,
2013-09-05 11:23:00,82.9,68.2,29.89,West,270,8.0,10.0,61,0.00,,,0.00,meteohub,2013-09-05 18:23:00,
2013-09-05 11:28:00,81.7,67.8,29.89,NW,315,7.0,9.0,63,0.00,,,0.00,meteohub,2013-09-05 18:28:00,
2013-09-05 11:33:00,81.3,67.5,29.88,West,270,9.0,11.0,63,0.00,,,0.00,meteohub,2013-09-05 18:33:00,
2013-09-05 11:38:00,81.3,67.5,29.88,NW,315,10.0,11.0,63,0.00,,,0.00,meteohub,2013-09-05 18:38:00,
2013-09-05 11:43:00,81.1,67.8,29.89,West,270,7.0,11.0,64,0.00,,,0.00,meteohub,2013-09-05 18:43:00,
2013-09-05 11:48:00,81.1,67.3,29.88,West,270,11.0,11.0,63,0.00,,,0.00,meteohub,2013-09-05 18:48:00,
2013-09-05 11:53:00,81.0,67.1,29.88,NW,315,10.0,11.0,63,0.00,,,0.00,meteohub,2013-09-05 18:53:00,
2013-09-05 11:58:00,81.5,67.3,29.88,West,270,9.0,11.0,62,0.00,,,0.00,meteohub,2013-09-05 18:58:00,
2013-09-05 12:03:00,82.0,65.8,29.88,West,270,11.0,11.0,58,0.00,,,0.00,meteohub,2013-09-05 19:03:00,
2013-09-05 12:08:00,82.6,66.4,29.88,NW,315,8.0,11.0,58,0.00,,,0.00,meteohub,2013-09-05 19:08:00,
2013-09-05 12:13:00,82.9,66.2,29.88,NW,315,8.0,11.0,57,0.00,,,0.00,meteohub,2013-09-05 19:13:00,
2013-09-05 12:18:00,83.5,66.2,29.88,NW,315,8.0,11.0,56,0.00,,,0.00,meteohub,2013-09-05 19:18:00,
2013-09-05 12:23:00,84.2,66.2,29.88,NW,315,8.0,10.0,55,0.00,,,0.00,meteohub,2013-09-05 19:23:00,
2013-09-05 12:28:00,85.1,66.0,29.88,WNW,293,7.0,9.0,53,0.00,,,0.00,meteohub,2013-09-05 19:28:00,
2013-09-05 12:33:00,86.0,66.9,29.88,West,270,7.0,9.0,53,0.00,,,0.00,meteohub,2013-09-05 19:33:00,
2013-09-05 12:38:00,86.4,66.0,29.88,West,270,8.0,10.0,51,0.00,,,0.00,meteohub,2013-09-05 19:38:00,
2013-09-05 12:43:00,87.4,65.8,29.87,NW,315,6.0,10.0,49,0.00,,,0.00,meteohub,2013-09-05 19:43:00,
2013-09-05 12:48:00,88.5,65.7,29.87,West,270,6.0,10.0,47,0.00,,,0.00,meteohub,2013-09-05 19:48:00,
2013-09-05 12:53:00,88.7,65.3,29.87,NW,315,9.0,10.0,46,0.00,,,0.00,meteohub,2013-09-05 19:53:00,
2013-09-05 12:58:00,88.5,65.1,29.87,NW,315,6.0,10.0,46,0.00,,,0.00,meteohub,2013-09-05 19:58:00,
2013-09-05 13:03:00,88.5,63.9,29.87,West,270,9.0,9.0,44,0.00,,,0.00,meteohub,2013-09-05 20:03:00,
2013-09-05 13:08:00,88.3,63.0,29.87,NW,315,8.0,9.0,43,0.00,,,0.00,meteohub,2013-09-05 20:08:00,
2013-09-05 13:13:00,88.9,62.8,29.87,West,270,10.0,10.0,42,0.00,,,0.00,meteohub,2013-09-05 20:13:00,
2013-09-05 13:18:00,88.5,62.4,29.87,West,270,8.0,11.0,42,0.00,,,0.00,meteohub,2013-09-05 20:18:00,
2013-09-05 13:23:00,88.3,62.4,29.86,West,270,11.0,11.0,42,0.00,,,0.00,meteohub,2013-09-05 20:23:00,
2013-09-05 13:28:00,88.9,63.5,29.86,West,270,11.0,11.0,43,0.00,,,0.00,meteohub,2013-09-05 20:28:00,
2013-09-05 13:33:00,89.2,64.4,29.86,NW,315,11.0,11.0,44,0.00,,,0.00,meteohub,2013-09-05 20:33:00,
2013-09-05 13:38:00,89.4,64.0,29.85,NW,315,8.0,11.0,43,0.00,,,0.00,meteohub,2013-09-05 20:38:00,
2013-09-05 13:43:00,89.1,63.0,29.85,NW,315,11.0,11.0,42,0.00,,,0.00,meteohub,2013-09-05 20:43:00,
2013-09-05 13:48:00,89.6,62.8,29.85,NW,315,8.0,11.0,41,0.00,,,0.00,meteohub,2013-09-05 20:48:00,
2013-09-05 13:53:00,90.0,63.1,29.84,West,270,8.0,11.0,41,0.00,,,0.00,meteohub,2013-09-05 20:53:00,
2013-09-05 13:58:00,89.8,63.0,29.84,West,270,7.0,11.0,41,0.00,,,0.00,meteohub,2013-09-05 20:58:00,
2013-09-05 14:03:00,90.9,62.4,29.84,NW,315,8.0,11.0,39,0.00,,,0.00,meteohub,2013-09-05 21:03:00,
2013-09-05 14:08:00,90.9,62.4,29.83,West,270,7.0,10.0,39,0.00,,,0.00,meteohub,2013-09-05 21:08:00,
2013-09-05 14:13:00,90.7,62.2,29.83,NW,315,7.0,10.0,39,0.00,,,0.00,meteohub,2013-09-05 21:13:00,
2013-09-05 14:18:00,91.2,62.1,29.83,WNW,293,7.0,11.0,38,0.00,,,0.00,meteohub,2013-09-05 21:18:00,
2013-09-05 14:23:00,91.6,60.8,29.82,West,270,7.0,11.0,36,0.00,,,0.00,meteohub,2013-09-05 21:23:00,
2013-09-05 14:28:00,92.5,60.8,29.82,NW,315,8.0,11.0,35,0.00,,,0.00,meteohub,2013-09-05 21:28:00,
2013-09-05 14:33:00,92.5,60.8,29.82,NW,315,7.0,9.0,35,0.00,,,0.00,meteohub,2013-09-05 21:33:00,
2013-09-05 14:38:00,93.0,61.3,29.82,NNW,338,7.0,9.0,35,0.00,,,0.00,meteohub,2013-09-05 21:38:00,
2013-09-05 14:44:00,93.2,59.9,29.82,WNW,293,9.0,9.0,33,0.00,,,0.00,meteohub,2013-09-05 21:44:00,
2013-09-05 14:49:00,93.4,60.8,29.81,West,270,6.0,9.0,34,0.00,,,0.00,meteohub,2013-09-05 21:49:00,
2013-09-05 14:54:00,93.6,60.1,29.81,WNW,293,9.0,10.0,33,0.00,,,0.00,meteohub,2013-09-05 21:54:00,
2013-09-05 14:59:00,94.1,61.5,29.81,West,270,7.0,10.0,34,0.00,,,0.00,meteohub,2013-09-05 21:59:00,
2013-09-05 15:04:00,94.8,62.1,29.81,NW,315,5.0,10.0,34,0.00,,,0.00,meteohub,2013-09-05 22:04:00,
2013-09-05 15:09:00,95.4,63.3,29.81,West,270,9.0,9.0,35,0.00,,,0.00,meteohub,2013-09-05 22:09:00,
2013-09-05 15:14:00,94.8,63.7,29.81,NW,315,7.0,9.0,36,0.00,,,0.00,meteohub,2013-09-05 22:14:00,
2013-09-05 15:19:00,95.4,64.2,29.81,NW,315,4.0,9.0,36,0.00,,,0.00,meteohub,2013-09-05 22:19:00,
2013-09-05 15:24:00,96.8,58.3,29.81,North,0,7.0,9.0,28,0.00,,,0.00,meteohub,2013-09-05 22:24:00,
2013-09-05 15:29:00,97.0,58.5,29.81,North,0,4.0,8.0,28,0.00,,,0.00,meteohub,2013-09-05 22:29:00,
2013-09-05 15:34:00,97.2,58.6,29.81,NE,45,6.0,9.0,28,0.00,,,0.00,meteohub,2013-09-05 22:34:00,
2013-09-05 15:39:00,97.7,60.1,29.81,NE,45,5.0,9.0,29,0.00,,,0.00,meteohub,2013-09-05 22:39:00,
2013-09-05 15:44:00,97.7,60.1,29.81,NE,45,4.0,9.0,29,0.00,,,0.00,meteohub,2013-09-05 22:44:00,
2013-09-05 15:49:00,98.4,59.7,29.81,East,90,4.0,9.0,28,0.00,,,0.00,meteohub,2013-09-05 22:49:00,
2013-09-05 15:54:00,98.6,58.8,29.81,North,0,7.0,9.0,27,0.00,,,0.00,meteohub,2013-09-05 22:54:00,
2013-09-05 15:59:00,97.5,59.9,29.81,NE,45,6.0,9.0,29,0.00,,,0.00,meteohub,2013-09-05 22:59:00,
2013-09-05 16:04:00,97.7,60.1,29.81,ENE,68,4.0,9.0,29,0.00,,,0.00,meteohub,2013-09-05 23:04:00,
2013-09-05 16:09:00,97.7,60.1,29.81,NNE,23,6.0,9.0,29,0.00,,,0.00,meteohub,2013-09-05 23:09:00,
2013-09-05 16:14:00,97.3,58.8,29.81,North,0,5.0,9.0,28,0.00,,,0.00,meteohub,2013-09-05 23:14:00,
2013-09-05 16:19:00,96.8,56.3,29.81,North,0,6.0,8.0,26,0.00,,,0.00,meteohub,2013-09-05 23:19:00,
2013-09-05 16:24:00,96.3,56.8,29.81,North,0,8.0,8.0,27,0.00,,,0.00,meteohub,2013-09-05 23:24:00,
2013-09-05 16:29:00,96.1,56.7,29.81,North,0,7.0,8.0,27,0.00,,,0.00,meteohub,2013-09-05 23:29:00,
2013-09-05 16:34:00,96.1,56.7,29.81,North,0,6.0,8.0,27,0.00,,,0.00,meteohub,2013-09-05 23:34:00,
2013-09-05 16:39:00,96.1,56.7,29.81,North,0,5.0,8.0,27,0.00,,,0.00,meteohub,2013-09-05 23:39:00,
2013-09-05 16:44:00,95.7,57.4,29.81,North,0,6.0,8.0,28,0.00,,,0.00,meteohub,2013-09-05 23:44:00,
2013-09-05 16:49:00,96.1,56.7,29.81,North,0,7.0,8.0,27,0.00,,,0.00,meteohub,2013-09-05 23:49:00,
2013-09-05 16:54:00,95.2,57.9,29.80,NE,45,5.0,8.0,29,0.00,,,0.00,meteohub,2013-09-05 23:54:00,
2013-09-05 16:59:00,94.5,57.4,29.81,North,0,6.0,8.0,29,0.00,,,0.00,meteohub,2013-09-05 23:59:00,
2013-09-05 17:04:00,94.3,59.0,29.80,NNW,338,5.0,8.0,31,0.00,,,0.00,meteohub,2013-09-06 00:04:00,
2013-09-05 17:09:00,94.3,59.0,29.80,NE,45,4.0,8.0,31,0.00,,,0.00,meteohub,2013-09-06 00:09:00,
2013-09-05 17:14:00,94.3,59.0,29.80,North,0,5.0,8.0,31,0.00,,,0.00,meteohub,2013-09-06 00:14:00,
2013-09-05 17:19:00,93.9,57.7,29.80,NNW,338,7.0,8.0,30,0.00,,,0.00,meteohub,2013-09-06 00:19:00,
2013-09-05 17:24:00,93.6,58.5,29.80,NNE,23,4.0,8.0,31,0.00,,,0.00,meteohub,2013-09-06 00:24:00,
2013-09-05 17:29:00,93.2,58.1,29.80,NNE,23,6.0,8.0,31,0.00,,,0.00,meteohub,2013-09-06 00:29:00,
2013-09-05 17:34:00,92.7,59.4,29.80,North,0,2.0,7.0,33,0.00,,,0.00,meteohub,2013-09-06 00:34:00,
2013-09-05 17:39:00,92.3,59.0,29.80,NNE,23,5.0,7.0,33,0.00,,,0.00,meteohub,2013-09-06 00:39:00,
2013-09-05 17:44:00,92.7,60.3,29.80,North,0,4.0,7.0,34,0.00,,,0.00,meteohub,2013-09-06 00:44:00,
2013-09-05 17:49:00,92.8,60.3,29.80,NNE,23,3.0,7.0,34,0.00,,,0.00,meteohub,2013-09-06 00:49:00,
2013-09-05 17:54:00,92.5,60.1,29.81,NNE,23,3.0,6.0,34,0.00,,,0.00,meteohub,2013-09-06 00:54:00,
2013-09-05 17:59:00,91.6,60.8,29.81,NNE,23,3.0,5.0,36,0.00,,,0.00,meteohub,2013-09-06 00:59:00,
2013-09-05 18:04:00,91.8,60.3,29.81,North,0,3.0,7.0,35,0.00,,,0.00,meteohub,2013-09-06 01:04:00,
2013-09-05 18:09:00,91.8,60.3,29.81,North,0,3.0,7.0,35,0.00,,,0.00,meteohub,2013-09-06 01:09:00,
2013-09-05 18:14:00,91.6,60.1,29.81,NNE,23,1.0,7.0,35,0.00,,,0.00,meteohub,2013-09-06 01:14:00,
2013-09-05 18:19:00,91.6,60.1,29.81,NNE,23,1.0,4.0,35,0.00,,,0.00,meteohub,2013-09-06 01:19:00,
2013-09-05 18:24:00,91.2,59.7,29.81,North,0,2.0,4.0,35,0.00,,,0.00,meteohub,2013-09-06 01:24:00,
2013-09-05 18:29:00,89.2,59.5,29.80,NNE,23,4.0,4.0,37,0.00,,,0.00,meteohub,2013-09-06 01:29:00,
2013-09-05 18:34:00,87.8,59.7,29.81,North,0,2.0,4.0,39,0.00,,,0.00,meteohub,2013-09-06 01:34:00,
2013-09-05 18:39:00,87.1,60.4,29.81,NNE,23,2.0,4.0,41,0.00,,,0.00,meteohub,2013-09-06 01:39:00,
2013-09-05 18:44:00,86.0,63.5,29.81,NW,315,0.0,4.0,47,0.00,,,0.00,meteohub,2013-09-06 01:44:00,
2013-09-05 18:49:00,84.9,64.2,29.81,NE,45,1.0,4.0,50,0.00,,,0.00,meteohub,2013-09-06 01:49:00,
2013-09-05 18:54:00,83.5,64.6,29.81,NE,45,2.0,4.0,53,0.00,,,0.00,meteohub,2013-09-06 01:54:00,
2013-09-05 18:59:00,82.2,64.9,29.82,NE,45,2.0,4.0,56,0.00,,,0.00,meteohub,2013-09-06 01:59:00,
2013-09-05 19:04:00,80.8,65.1,29.82,West,270,3.0,3.0,59,0.00,,,0.00,meteohub,2013-09-06 02:04:00,
2013-09-05 19:09:00,79.7,65.1,29.82,West,270,2.0,4.0,61,0.00,,,0.00,meteohub,2013-09-06 02:09:00,
2013-09-05 19:14:00,78.8,65.1,29.82,NW,315,2.0,4.0,63,0.00,,,0.00,meteohub,2013-09-06 02:14:00,
2013-09-05 19:19:00,78.1,65.3,29.82,SW,225,2.0,4.0,65,0.00,,,0.00,meteohub,2013-09-06 02:19:00,
2013-09-05 19:24:00,77.5,65.7,29.81,West,270,3.0,3.0,67,0.00,,,0.00,meteohub,2013-09-06 02:24:00,
2013-09-05 19:29:00,77.2,65.8,29.82,NW,315,3.0,4.0,68,0.00,,,0.00,meteohub,2013-09-06 02:29:00,
2013-09-05 19:34:00,77.0,65.7,29.82,West,270,5.0,5.0,68,0.00,,,0.00,meteohub,2013-09-06 02:34:00,
2013-09-05 19:39:00,76.8,65.5,29.82,NW,315,3.0,4.0,68,0.00,,,0.00,meteohub,2013-09-06 02:39:00,
2013-09-05 19:44:00,76.8,65.8,29.82,NW,315,4.0,5.0,69,0.00,,,0.00,meteohub,2013-09-06 02:44:00,
2013-09-05 19:49:00,76.5,65.5,29.82,WNW,293,3.0,5.0,69,0.00,,,0.00,meteohub,2013-09-06 02:49:00,
2013-09-05 19:54:00,76.1,65.7,29.83,NW,315,5.0,5.0,70,0.00,,,0.00,meteohub,2013-09-06 02:54:00,
2013-09-05 19:59:00,75.7,65.7,29.83,NW,315,4.0,5.0,71,0.00,,,0.00,meteohub,2013-09-06 02:59:00,
2013-09-05 20:05:00,75.2,66.0,29.83,West,270,5.0,5.0,73,0.00,,,0.00,meteohub,2013-09-06 03:05:00,
2013-09-05 20:10:00,74.3,65.8,29.84,NW,315,5.0,5.0,75,0.00,,,0.00,meteohub,2013-09-06 03:10:00,
2013-09-05 20:15:00,74.1,66.4,29.84,NW,315,5.0,7.0,77,0.00,,,0.00,meteohub,2013-09-06 03:15:00,
2013-09-05 20:19:00,73.9,66.2,29.84,West,270,2.0,7.0,77,0.00,,,0.00,meteohub,2013-09-06 03:19:00,
2013-09-05 20:24:00,74.1,66.0,29.84,West,270,2.0,5.0,76,0.00,,,0.00,meteohub,2013-09-06 03:24:00,
2013-09-05 20:29:00,74.1,65.7,29.84,West,270,3.0,5.0,75,0.00,,,0.00,meteohub,2013-09-06 03:29:00,
2013-09-05 20:34:00,74.5,65.7,29.84,West,270,2.0,5.0,74,0.00,,,0.00,meteohub,2013-09-06 03:34:00,
2013-09-05 20:39:00,74.3,65.5,29.84,West,270,3.0,3.0,74,0.00,,,0.00,meteohub,2013-09-06 03:39:00,
2013-09-05 20:44:00,74.1,65.3,29.85,West,270,4.0,4.0,74,0.00,,,0.00,meteohub,2013-09-06 03:44:00,
2013-09-05 20:49:00,73.9,65.5,29.85,West,270,2.0,4.0,75,0.00,,,0.00,meteohub,2013-09-06 03:49:00,
2013-09-05 20:54:00,73.9,65.5,29.85,West,270,2.0,4.0,75,0.00,,,0.00,meteohub,2013-09-06 03:54:00,
2013-09-05 20:59:00,73.8,65.3,29.85,West,270,2.0,4.0,75,0.00,,,0.00,meteohub,2013-09-06 03:59:00,
2013-09-05 21:01:00,73.8,65.3,29.85,West,270,2.0,4.0,75,0.00,,,0.00,meteohub,2013-09-06 04:01:00,
2013-09-05 21:02:00,73.8,65.3,29.85,West,270,3.0,4.0,75,0.00,,,0.00,meteohub,2013-09-06 04:02:00,
2013-09-05 21:07:00,73.8,65.7,29.85,West,270,3.0,4.0,76,0.00,,,0.00,meteohub,2013-09-06 04:07:00,
2013-09-05 21:12:00,73.8,65.7,29.86,West,270,2.0,6.0,76,0.00,,,0.00,meteohub,2013-09-06 04:12:00,
2013-09-05 21:17:00,73.6,65.8,29.86,West,270,4.0,6.0,77,0.00,,,0.00,meteohub,2013-09-06 04:17:00,
2013-09-05 21:22:00,73.2,66.7,29.86,West,270,4.0,6.0,80,0.00,,,0.00,meteohub,2013-09-06 04:22:00,
2013-09-05 21:27:00,72.7,67.3,29.86,West,270,4.0,6.0,83,0.00,,,0.00,meteohub,2013-09-06 04:27:00,
2013-09-05 21:32:00,72.1,67.1,29.86,West,270,4.0,7.0,84,0.00,,,0.00,meteohub,2013-09-06 04:32:00,
2013-09-05 21:37:00,71.8,67.3,29.86,West,270,3.0,7.0,86,0.00,,,0.00,meteohub,2013-09-06 04:37:00,
2013-09-05 21:42:00,71.4,67.1,29.86,West,270,3.0,5.0,86,0.00,,,0.00,meteohub,2013-09-06 04:42:00,
2013-09-05 21:47:00,71.4,67.1,29.86,NW,315,3.0,5.0,86,0.00,,,0.00,meteohub,2013-09-06 04:47:00,
2013-09-05 21:52:00,71.2,67.1,29.86,West,270,2.0,5.0,87,0.00,,,0.00,meteohub,2013-09-06 04:52:00,
2013-09-05 21:57:00,71.1,66.9,29.86,West,270,2.0,4.0,87,0.00,,,0.00,meteohub,2013-09-06 04:57:00,
2013-09-05 22:02:00,70.9,67.1,29.86,WSW,248,2.0,4.0,88,0.00,,,0.00,meteohub,2013-09-06 05:02:00,
2013-09-05 22:07:00,70.7,66.9,29.87,West,270,4.0,4.0,88,0.00,,,0.00,meteohub,2013-09-06 05:07:00,
2013-09-05 22:12:00,70.5,67.1,29.87,West,270,2.0,4.0,89,0.00,,,0.00,meteohub,2013-09-06 05:12:00,
2013-09-05 22:17:00,70.5,67.1,29.87,WSW,248,2.0,5.0,89,0.00,,,0.00,meteohub,2013-09-06 05:17:00,
2013-09-05 22:22:00,70.5,66.7,29.87,WSW,248,2.0,5.0,88,0.00,,,0.00,meteohub,2013-09-06 05:22:00,
2013-09-05 22:27:00,70.3,66.9,29.87,SW,225,2.0,5.0,89,0.00,,,0.00,meteohub,2013-09-06 05:27:00,
2013-09-05 22:32:00,70.3,66.9,29.87,SW,225,1.0,3.0,89,0.00,,,0.00,meteohub,2013-09-06 05:32:00,
2013-09-05 22:37:00,70.5,67.1,29.87,SW,225,1.0,3.0,89,0.00,,,0.00,meteohub,2013-09-06 05:37:00,
2013-09-05 22:42:00,70.7,67.3,29.87,SSW,203,2.0,2.0,89,0.00,,,0.00,meteohub,2013-09-06 05:42:00,
2013-09-05 22:46:00,70.9,67.5,29.87,West,270,1.0,3.0,89,0.00,,,0.00,meteohub,2013-09-06 05:46:00,
2013-09-05 22:51:00,71.1,67.3,29.87,SW,225,2.0,3.0,88,0.00,,,0.00,meteohub,2013-09-06 05:51:00,
2013-09-05 22:56:00,71.4,67.3,29.88,West,270,2.0,4.0,87,0.00,,,0.00,meteohub,2013-09-06 05:56:00,
2013-09-05 23:02:00,71.2,66.9,29.87,West,270,3.0,4.0,86,0.00,,,0.00,meteohub,2013-09-06 06:02:00,
2013-09-05 23:06:00,71.2,66.9,29.87,South,180,4.0,5.0,86,0.00,,,0.00,meteohub,2013-09-06 06:06:00,
2013-09-05 23:11:00,71.1,66.7,29.87,SW,225,4.0,5.0,86,0.00,,,0.00,meteohub,2013-09-06 06:11:00,
2013-09-05 23:16:00,70.5,66.2,29.87,West,270,2.0,6.0,86,0.00,,,0.00,meteohub,2013-09-06 06:16:00,
2013-09-05 23:21:00,70.3,66.2,29.86,West,270,3.0,6.0,87,0.00,,,0.00,meteohub,2013-09-06 06:21:00,
2013-09-05 23:26:00,69.8,66.0,29.86,West,270,4.0,6.0,88,0.00,,,0.00,meteohub,2013-09-06 06:26:00,
2013-09-05 23:31:00,69.8,66.4,29.87,West,270,4.0,7.0,89,0.00,,,0.00,meteohub,2013-09-06 06:31:00,
2013-09-05 23:36:00,69.6,66.9,29.87,West,270,5.0,7.0,91,0.00,,,0.00,meteohub,2013-09-06 06:36:00,
2013-09-05 23:41:00,69.4,66.7,29.87,NW,315,4.0,7.0,91,0.00,,,0.00,meteohub,2013-09-06 06:41:00,
2013-09-05 23:46:00,69.1,66.7,29.87,West,270,2.0,7.0,92,0.00,,,0.00,meteohub,2013-09-06 06:46:00,
2013-09-05 23:51:00,68.9,66.6,29.87,West,270,1.0,6.0,92,0.00,,,0.00,meteohub,2013-09-06 06:51:00,
2013-09-05 23:56:00,68.7,66.6,29.87,SW,225,2.0,5.0,93,0.00,,,0.00,meteohub,2013-09-06 06:56:00,